Location: Amsterdam
(30.7274°N, 84.4357°W)
Time: 03:53:22
(UTC+00:00)

Courier 1B Rocket - Pass Details

Date: 13 February 2026
Orbit: 920 x 1201 km, 28.2° (Epoch: 7 March)

Event Time Altitude Azimuth Distance (km) Brightness Sun altitude
Rises 01:25:06 0° 227° (SW) 3,566 8.6 -26.7°
Reaches altitude 10° 01:27:55 10° 218° (SW) 2,647 7.7 -27.3°
Enters shadow 01:32:43 31° 170° (S) 1,611 6.0 -28.3°
Maximum altitude 01:33:31 32° 156° (SSE) 1,589 - -28.5°
Drops below altitude 10° 01:39:25 10° 95° (E) 2,801 - -29.8°
Sets 01:42:29 0° 86° (E) 3,803 - -30.4°
